www.pogodaiklimat.ru

Погода и климат >> Архив погоды >> Польша >> Сечень


ПОГОДА в Сечене

  • Прогноз погоды в Сечене
  • Монитор погоды в Сечене

АРХИВ ПОГОДЫ в Сечене

Время (UTC), дата Ветер
(напр.,м/с)
 
Видим.   Явления Облачность Т
(С)
Тd
(С)
f
(%)
Тe
(С)
Тes
(С)
Комфортность P
(гПа)
Po
(гПа)
Тmin
(С)
Tmax
(С)
R
(мм)
R24
(мм)
S
(см)
04 10.07 штиль 0 н/о н/о +9.4 +7.2 86 +9 +9 1014.7 996.1
05 10.07 В 1 н/о н/о +12.2 +7.9 75 +12 +12 1014.4 995.9
06 10.07 ЮЗ 1 н/о н/о +14.7 +8.2 65 +15 +15 1014.5 996.2 +7.4
07 10.07 ЮЗ 2 н/о н/о +17.6 +7.4 51 +18 +18 1014.2 996.1
08 10.07 СЗ 2 н/о н/о +20.6 +7.3 42 +22 +22 комфорт 1013.8 995.9
09 10.07 СЗ 2 н/о н/о +21.0 +5.8 37 +23 +23 комфорт 1013.8 995.9
10 10.07 СЗ 3
{11}
н/о н/о +21.7 +5.6 35 +22 +22 комфорт 1013.6 995.7
11 10.07
{8}
н/о н/о +21.9 +7.3 39 1013.3 995.5
12 10.07 СВ 2
{7}
н/о н/о +22.1 +5.5 34 +23 +23 комфорт 1012.9 995.1
13 10.07 СЗ 4
{8}
н/о н/о +22.8 +7.8 38 +24 +24 комфорт 1012.9 995.1
14 10.07 З 3
{9}
н/о н/о +24.1 +7.7 35 +24 +24 комфорт 1012.5 994.8
15 10.07 СЗ 4
{7}
н/о н/о +22.4 +5.8 34 +23 +23 комфорт 1012.4 994.6
16 10.07 СЗ 6
{9}
н/о н/о +22.6 +6.0 34 +23 +23 комфорт 1012.4 994.6
17 10.07 СЗ 4
{9}
н/о н/о +22.0 +6.3 36 +23 +23 комфорт 1012.4 994.6
18 10.07 СЗ 3 н/о н/о +19.3 +6.4 43 +20 +20 1012.8 994.8 +24.1
19 10.07 СЗ 1 н/о н/о +16.5 +5.8 49 +17 +17 1013.7 995.5
20 10.07 З 2 н/о н/о +13.5 +7.1 65 +13 +13 1014.4 996.0
21 10.07 З 2 н/о н/о +13.1 +6.9 66 +13 +13 1014.5 996.1
22 10.07 ЮВ 1 н/о н/о +9.4 +6.5 82 +9 +9 1014.8 996.2
23 10.07 ЮВ 1 н/о н/о +10.0 +7.1 82 +10 +10 1014.8 996.2
00 11.07 ЮВ 2 н/о н/о +9.7 +7.3 85 +8 +8 1014.8 996.2
01 11.07 В 1 н/о н/о +9.9 +7.5 85 +9 +9 1014.5 995.9
02 11.07 ЮВ 1 н/о н/о +8.6 +7.1 90 +8 +8 1014.0 995.3
03 11.07 ЮВ 1 н/о н/о +7.4 +6.7 95 +6 +6 1014.1 995.3
04 11.07 ЮВ 1 н/о н/о +8.1 +7.0 93 +7 +7 1014.0 995.3
05 11.07 ЮВ 1 н/о н/о +10.9 +9.0 88 +11 +11 1013.7 995.2
06 11.07 ЮЗ 2 н/о н/о +16.3 +9.9 66 +16 +16 1013.3 995.1 +7.2
07 11.07 З 4 н/о н/о +20.8 +10.0 50 +23 +23 комфорт 1012.8 994.9
08 11.07 СЗ 4
{8}
н/о н/о +21.9 +10.1 47 +24 +24 комфорт 1012.5 994.7
09 11.07 СЗ 5
{10}
н/о н/о +21.9 +8.4 42 +23 +23 комфорт 1012.3 994.5
10 11.07 СЗ 5
{8}
н/о н/о +22.9 +8.2 39 +24 +24 комфорт 1011.7 994.0
11 11.07 З 4
{11}
н/о н/о +23.9 +8.3 37 +24 +24 комфорт 1011.1 993.4
12 11.07 СЗ 6
{10}
н/о н/о +22.4 +7.0 37 +23 +23 комфорт 1011.1 993.3
13 11.07 СВ 6
{9}
н/о н/о +22.6 +6.8 36 +23 +23 комфорт 1010.9 993.1
14 11.07 СВ 5
{8}
н/о н/о +18.1 +11.2 64 +18 +18 1012.1 994.1
15 11.07 В 3
{9}
н/о н/о +18.5 +10.1 58 +19 +19 1012.1 994.1
16 11.07 В 1 н/о н/о +20.8 +10.9 53 +24 +24 комфорт 1011.5 993.6
17 11.07 С 4
{7}
н/о н/о +21.0 +9.0 46 +23 +23 комфорт 1011.5 993.6
18 11.07 С 1 н/о н/о +19.0 +9.2 53 +21 +21 комфорт 1012.0 994.0 +24.9 0.6
19 11.07 Ю 1 н/о н/о +14.5 +10.9 79 +15 +15 1012.9 994.6
20 11.07 ЮЗ 1 н/о н/о +12.4 +10.1 86 +12 +12 1013.5 995.1
21 11.07 В 1 н/о н/о +11.8 +10.4 91 +12 +12 1013.9 995.4
22 11.07 В 1 н/о н/о +9.4 +8.9 97 +9 +9 1014.5 995.9
23 11.07 штиль 0 н/о н/о +8.6 +8.3 98 +8 +8 1014.6 995.9
00 12.07 СВ 1 н/о н/о +8.0 +7.7 98 +7 +7 1014.5 995.8
01 12.07 штиль 0 н/о н/о +7.5 +7.4 99 +6 +6 1014.5 995.7
02 12.07 С 1 н/о н/о +7.2 +7.2 100 +6 +6 1014.2 995.4
03 12.07 СВ 2 н/о н/о +6.7 +6.7 100 +4 +4 1014.5 995.7
04 12.07 СВ 1 н/о н/о +9.2 +9.1 99 +8 +8 1014.5 995.8
05 12.07 СВ 1 н/о н/о +11.5 +10.1 91 +11 +11 1014.3 995.8
06 12.07 В 2 н/о н/о +15.6 +11.0 74 +16 +16 1014.0 995.8 +6.6
07 12.07 З 1 н/о н/о +18.3 +10.7 61 +20 +20 1013.8 995.7
08 12.07 ЮЗ 1 н/о н/о +20.8 +12.2 58 +24 +24 комфорт 1013.3 995.4
09 12.07 ЮЗ 4 н/о н/о +21.2 +11.0 52 +23 +23 комфорт 1013.2 995.3
10 12.07 ЮЗ 4 н/о н/о +22.2 +10.7 48 +24 +24 комфорт 1012.7 994.9
11 12.07 ЮЗ 4
{8}
н/о н/о +21.4 +10.9 51 +23 +23 комфорт 1012.7 994.8
12 12.07 ЮЗ 4 н/о н/о +20.2 +11.7 58 +22 +22 комфорт 1012.5 994.6
13 12.07 З 3 н/о н/о +19.6 +11.6 60 +21 +21 комфорт 1012.5 994.5
14 12.07 З 3 н/о н/о +19.2 +12.9 67 +21 +21 комфорт 1012.5 994.5
15 12.07 ЮЗ 2 н/о н/о +19.4 +12.9 66 +21 +21 комфорт 1012.1 994.1
16 12.07 ЮЗ 4
{7}
н/о н/о +17.5 +14.8 84 +17 +17 1012.1 994.0
17 12.07 ЮЗ 2 н/о н/о +16.9 +16.4 97 +17 +17 1011.9 993.8
18 12.07 Ю 1 н/о н/о +16.8 +16.3 97 +18 +18 1011.9 993.8 +22.5 0.3
19 12.07 Ю 1 н/о н/о +16.0 +15.7 98 +17 +17 1012.0 993.8
20 12.07 штиль 0 н/о н/о +15.4 +15.2 99 +15 +15 1012.2 994.0
21 12.07 ЮВ 1 н/о н/о +14.5 +14.5 100 +15 +15 1012.1 993.8
22 12.07 штиль 0 н/о н/о +13.9 +13.9 100 +13 +13 1012.2 993.9
23 12.07 штиль 0 н/о н/о +13.1 +12.9 99 +13 +13 1012.2 993.8
00 13.07 штиль 0 н/о н/о +13.5 +13.3 99 +13 +13 1011.8 993.5
01 13.07 З 1 н/о н/о +13.9 +13.7 99 +14 +14 1011.3 993.0
02 13.07 ЮЗ 1 н/о н/о +13.5 +13.3 99 +14 +14 1011.0 992.7
03 13.07 штиль 0 н/о н/о +13.3 +13.1 99 +13 +13 1010.8 992.5
04 13.07 штиль 0 н/о н/о +13.8 +13.6 99 +13 +13 1010.8 992.5
05 13.07 З 1 н/о н/о +14.1 +13.9 99 +14 +14 1011.0 992.7
06 13.07 штиль 0 н/о н/о +14.0 +13.8 99 +14 +14 1010.9 992.6 +12.9 0.1
07 13.07 ЮЗ 2 н/о н/о +15.1 +14.9 99 +15 +15 1011.0 992.8
08 13.07 Ю 1 н/о н/о +17.4 +16.3 93 +18 +18 1010.6 992.5
09 13.07 ЮЗ 2 н/о н/о +19.7 +16.7 83 +23 +23 комфорт 1010.1 992.2
10 13.07 ЮЗ 2 н/о н/о +21.6 +16.1 71 +25 +25 комфорт 1009.6 991.8
11 13.07 З 4 н/о н/о +21.0 +15.3 70 +24 +24 комфорт 1009.1 991.3
12 13.07 С 2 н/о н/о +18.6 +17.4 93 +20 +20 1009.6 991.6 0.6
13 13.07 ЮЗ 2 н/о н/о +16.7 +15.2 91 +17 +17 1010.0 991.9
14 13.07 Ю 1 н/о н/о +17.4 +15.9 91 +18 +18 1009.6 991.6
15 13.07 Ю 1 н/о н/о +18.3 +16.3 88 +20 +20 1009.6 991.6
16 13.07 ЮВ 2 н/о н/о +19.2 +16.4 84 +21 +21 комфорт 1009.2 991.3
17 13.07 З 1 н/о н/о +18.5 +16.7 89 +20 +20 1009.3 991.3
18 13.07 З 2 н/о н/о +17.8 +16.8 94 +18 +18 1009.4 991.4 +22.6 3
19 13.07 ЮЗ 1 н/о н/о +16.4 +16.1 98 +17 +17 1009.8 991.7
20 13.07 ЮЗ 2 н/о н/о +15.1 +14.9 99 +15 +15 1009.9 991.7
21 13.07 ЮЗ 1 н/о н/о +14.3 +14.1 99 +15 +15 1010.2 992.0
22 13.07 Ю 1 н/о н/о +14.4 +14.2 99 +15 +15 1010.2 992.0
23 13.07 штиль 0 н/о н/о +13.3 +13.1 99 +13 +13 1010.2 991.9
00 14.07 штиль 0 н/о н/о +14.2 +14.0 99 +14 +14 1010.2 991.9
01 14.07 С 1 н/о н/о +13.4 +13.2 99 +13 +13 1010.1 991.8
02 14.07 С 1 н/о н/о +12.9 +12.7 99 +13 +13 1010.1 991.8
03 14.07 штиль 0 н/о н/о +12.5 +12.3 99 +12 +12 1010.2 991.8
04 14.07 СЗ 1 н/о н/о +12.7 +12.5 99 +13 +13 1010.4 992.0
05 14.07 штиль 0 н/о н/о +13.2 +13.0 99 +13 +13 1010.5 992.2
06 14.07 З 1 н/о н/о +14.0 +13.8 99 +14 +14 1010.7 992.4 +12.2 0.1
07 14.07 штиль 0 н/о н/о +14.6 +14.4 99 +14 +14 1011.3 993.1
08 14.07 штиль 0 н/о н/о +16.4 +15.6 95 +16 +16 1011.3 993.2
09 14.07 З 1 н/о н/о +19.8 +15.5 76 +23 +23 комфорт 1011.0 993.1
10 14.07 В 2 н/о н/о +22.6 +12.5 53 +25 +25 комфорт 1010.4 992.7
11 14.07 СЗ 3 н/о н/о +22.8 +12.1 51 +25 +25 комфорт 1010.2 992.5
12 14.07 З 4
{9}
н/о н/о +20.3 +15.1 72 +23 +23 комфорт 1010.4 992.5 0.1
13 14.07 З 1 н/о н/о +24.6 +12.6 47 +26 +26 жарко 1009.6 992.0
14 14.07 С 1 н/о н/о +23.8 +11.8 47 +25 +25 комфорт 1009.4 991.7
15 14.07 В 5
{9}
н/о н/о +20.8 +14.0 65 +23 +23 комфорт 1010.6 992.7
16 14.07 В 4
{10}
н/о н/о +20.8 +12.0 57 +23 +23 комфорт 1010.3 992.5
17 14.07 В 2 н/о н/о +19.3 +13.0 67 +21 +21 комфорт 1010.8 992.9
18 14.07 В 1 н/о н/о +18.5 +14.0 75 +20 +20 1011.4 993.4 +25.2 0.1
19 14.07 В 1 н/о н/о +15.2 +13.9 92 +16 +16 1012.0 993.8
20 14.07 С 1 н/о н/о +13.8 +13.5 98 +14 +14 1012.5 994.2
21 14.07 ЮВ 1 н/о н/о +13.1 +12.9 99 +13 +13 1012.7 994.3
22 14.07 В 1 н/о н/о +13.6 +13.4 99 +14 +14 1012.9 994.6
23 14.07 СВ 1 н/о н/о +12.7 +12.5 99 +13 +13 1013.2 994.8
00 15.07 штиль 0 н/о н/о +10.7 +10.5 99 +10 +10 1013.0 994.5
01 15.07 штиль 0 н/о н/о +10.0 +9.9 99 +9 +9 1012.8 994.2
02 15.07 В 1 н/о н/о +9.2 +9.1 99 +8 +8 1012.9 994.3
03 15.07 штиль 0 н/о н/о +8.8 +8.7 99 +8 +8 1013.2 994.5
04 15.07 штиль 0 н/о н/о +9.9 +9.8 99 +9 +9 1013.3 994.7
05 15.07 штиль 0 н/о н/о +10.7 +10.5 99 +10 +10 1013.3 994.8
06 15.07 штиль 0 н/о н/о +13.5 +13.3 99 +13 +13 1013.3 994.9 +8.7 0.1
07 15.07 Ю 1 н/о н/о +17.5 +11.5 68 +19 +19 1013.3 995.2
08 15.07 З 1 н/о н/о +20.9 +11.8 56 +24 +24 комфорт 1012.9 995.0
09 15.07 В 1 н/о н/о +22.7 +7.7 38 +24 +24 комфорт 1012.6 994.8
10 15.07 З 2 н/о н/о +21.9 +9.1 44 +23 +23 комфорт 1012.6 994.8
11 15.07 СЗ 2 н/о н/о +24.9 +7.1 32 +25 +25 комфорт 1012.1 994.5
12 15.07 СЗ 2
{8}
н/о н/о +23.0 +7.9 38 +24 +24 комфорт 1012.0 994.3
13 15.07 З 2 н/о н/о +25.3 +7.4 32 +25 +25 комфорт 1011.3 993.7
14 15.07 ЮЗ 1 н/о н/о +26.4 +7.4 30 +26 +26 жарко 1011.1 993.6
15 15.07 С 1 н/о н/о +25.4 +5.1 27 +25 +25 комфорт 1010.9 993.3
16 15.07 Ю 1 н/о н/о +25.0 +9.7 38 +26 +26 жарко 1010.8 993.2
17 15.07 Ю 1 н/о н/о +24.0 +11.3 45 +25 +25 комфорт 1011.0 993.3
18 15.07 СВ 1 н/о н/о +22.3 +6.9 37 +23 +23 комфорт 1011.5 993.7 +26.6
19 15.07 СЗ 3 н/о н/о +19.4 +7.2 45 +20 +20 1012.0 994.0
20 15.07 С 1 н/о н/о +14.6 +9.2 70 +15 +15 1013.0 994.7
21 15.07 В 1 н/о н/о +14.2 +9.2 72 +15 +15 1013.5 995.2
22 15.07 В 1 н/о н/о +12.1 +8.9 81 +12 +12 1014.1 995.6
23 15.07 В 1 н/о н/о +9.7 +8.5 92 +9 +9 1014.5 995.9
00 16.07 СВ 1 н/о н/о +8.9 +8.1 95 +8 +8 1014.6 995.9
01 16.07 В 1 н/о н/о +9.4 +8.6 95 +9 +9 1014.5 995.9
02 16.07 Ю 1 н/о н/о +8.4 +8.0 97 +7 +7 1014.7 996.0
03 16.07 штиль 0 н/о н/о +8.0 +7.7 98 +7 +7 1014.8 996.1
04 16.07 штиль 0 н/о н/о +8.8 +8.5 98 +8 +8 1014.6 995.9
05 16.07 штиль 0 н/о н/о +12.5 +9.5 82 +12 +12 1014.5 996.1
06 16.07 штиль 0 н/о н/о +15.3 +10.5 73 +15 +15 1014.3 996.0 +7.9
07 16.07 Ю 1 н/о н/о +19.4 +10.1 55 +22 +22 комфорт 1013.7 995.7
08 16.07 ЮЗ 2 н/о н/о +22.2 +9.0 43 +24 +24 комфорт 1013.3 995.5
09 16.07 ЮЗ 4 н/о н/о +23.9 +7.9 36 +24 +24 комфорт 1012.8 995.1
10 16.07 З 5
{8}
н/о н/о +25.1 +8.6 35 +26 +26 жарко 1012.2 994.6
11 16.07 З 4
{9}
н/о н/о +27.4 +10.2 34 +28 +28 жарко 1011.5 994.0
12 16.07 З 4
{9}
н/о н/о +28.1 +10.8 34 +29 +29 жарко 1011.0 993.6
13 16.07 СЗ 5
{10}
н/о н/о +27.3 +10.5 35 +28 +28 жарко 1010.8 993.3
14 16.07 З 5
{10}
н/о н/о +27.4 +10.2 34 +28 +28 жарко 1010.3 992.8
15 16.07 З 5
{11}
н/о н/о +26.1 +11.1 39 +27 +27 жарко 1010.1 992.6
16 16.07 З 4
{10}
н/о н/о +25.4 +11.6 42 +27 +27 жарко 1009.9 992.3
17 16.07 З 4
{11}
н/о н/о +25.2 +11.0 41 +26 +26 жарко 1009.7 992.1
18 16.07 З 4
{7}
н/о н/о +22.8 +10.6 46 +25 +25 комфорт 1010.1 992.4 +28.5
19 16.07 З 2 н/о н/о +18.1 +10.2 60 +19 +19 1011.1 993.1
20 16.07 Ю 1 н/о н/о +15.1 +10.7 75 +16 +16 1011.7 993.5
21 16.07 штиль 0 н/о н/о +12.6 +10.1 85 +12 +12 1011.9 993.5
22 16.07 ЮЗ 1 н/о н/о +12.0 +9.9 87 +12 +12 1012.3 993.9
23 16.07 ЮЗ 1 н/о н/о +11.7 +9.6 87 +12 +12 1012.4 993.9
00 17.07 ЮЗ 1 н/о н/о +11.0 +9.6 91 +11 +11 1012.6 994.1
01 17.07 Ю 2 н/о н/о +9.4 +8.5 94 +8 +8 1012.8 994.2
02 17.07 ЮВ 1 н/о н/о +8.7 +7.8 94 +8 +8 1012.9 994.2

 

Местоположение метеостанции Сечень (Польша): широта 48.12 долгота 19.52 высота над уровнем моря 153 м.

В архиве по умолчанию представлена погода в Сечене за последнюю неделю. Архивные данные за месяц целиком и за предыдущие месяцы, начиная с января 2011 года, Вы можете получить, выбрав интересующий диапазон дат из раскрывающегося списка и нажав кнопку "Ввод!".


*Определитесь, кто Вы:
робот инопланетянин человек

Внимание! Время в таблицах - всемирное. Для получения местного времени необходимо прибавить поправку, которая равна 1 ч.

Смотрите также архив погоды в соседних городах и на ближайших метеорологических станциях:

Погода в Лученце (Словакия) (28 км)
Погода на Кекеше (Венгрия) (46 км)
Погода в Дудинце (Словакия) (49 км)
Погода в Слиаче (Словакия) (65 км)
Погода в Эгере (Венгрия) (69 км)
Погода в Жьяр-над-Гроном (Словакия) (71 км)
Погода в Тате (Венгрия) (80 км)
Погода в Будапеште (Венгрия) (81 км)
Погода в Моховце (Словакия) (81 км)
Погода в Йосвафо (Венгрия) (85 км)

Пояснения к столбцам:

Ветер - указаны скорость ветра в м/с - средняя за 10 мин, порывы в срок и между сроками (в фигурных скобках) и направление, откуда дует ветер: С - северный, СВ - северо-восточный, В - восточный, ЮВ - юго-восточный, Ю - южный, ЮЗ - юго-западный, З - западный, СЗ - северо-западный.
Видимость - горизонтальная дальность видимости в метрах или километрах. При видимости от 1 до 10 км при отсутствии осадков обычно наблюдается дымка, при ухудшении видимости до 1 км и менее - туман. В сухую погоду видимость может ухудшаться дымом, пылью или мглою.
Явления - указаны атмосферные явления, наблюдавшиеся в срок или в последний час перед сроком; фигурными скобками обозначены явления, наблюдавшиеся между сроками (за 1-3 часа до срока); квадратными скобками обозначены град или гололедные отложения с указанием их диаметра в мм.
Облачность - указаны через наклонную черту общая и нижняя облачность в баллах и высота нижней границы облаков в метрах; квадратными скобками обозначены формы облаков: Ci - перистые, Cs - перисто-слоистые, Cc - перисто-кучевые, Ac - высококучевые, As - высокослоистые, Sc - слоисто-кучевые, Ns - слоисто-дождевые, Cu - кучевые, Cb - кучево-дождевые. Подробнее классификацию облаков см. в Атласе облаков (PDF).
T - Температура воздуха - температура, измеренная на высоте 2 м над землей.
Td - Температура точки росы - температура, при понижении до которой содержащийся в воздухе водяной пар достигнет насыщения.
f - Относительная влажность воздуха - влажноcть воздуха, измеренная на высоте 2 м над землей.
Te - Эффективная температура - температура, которую ощущает одетый по сезону человек в тени. Характеристика душности погоды. При расчете учитывается влияние влажности воздуха и скорости ветра на теплоощущения человека.
Tes - Эффективная температура на солнце - температура, которую ощущает человек, с поправкой на солнечный нагрев. Характеристика знойности погоды. Зависит от высоты солнца над горизонтом, облачности и скорости ветра. Ночью, в пасмурную погоду, а также при ветре 12 м/с и более поправка равна нулю.
P - Атмосферное давление - приведенное к уровню моря атмосферное давление.
Po - Атмосферное давление - измеренное на уровне метеостанции атмосферное давление.
Tmin - Минимальная температура - минимум температуры воздуха на высоте 2 м над землей.
Tmax - Максимальная температура - максимум температуры воздуха на высоте 2 м над землей.
R - Количество осадков - Количество выпавших осадков за период времени, мм. При наведении курсора мыши на число - период времени, за который выпало указанное количество осадков.
R24 - Количество осадков - Количество выпавших осадков за 24 часа, мм.
S - Снежный покров - Высота снежного покрова, см. При наведении курсора мыши на число - состояние снежного покрова и степень покрытия местности в баллах.